Zurück zum Katalog

ARIANE 1 DEB

AktivSSO
NORAD 27596·DEBRIS·🇫🇷 France

Gestartet Feb 22, 1986 von Guiana Space Centre

Loading…

Nächste Überflüge (nächste 24 Stunden)

TLE

AktuellSource: Space-Track

Epoche: Sep 13, 2026, 22:29 UTC

1 27596U 86019VN  26256.93737050  .00001672  00000-0  39017-3 0  9997
2 27596  98.2699 234.7418 0038736  45.1854  15.5361 14.55587878627067

Verfolge ARIANE 1 DEB in Echtzeit mit AllMySat

Download on the App Store